Okean 3 - Orbit

View from above orbital plane
View from above orbital plane
View from above satellite
View from above satellite

Ground track
Ground track

The orbit data is extracted from the following two-line orbital elements,

1 21397U 91039A   13139.44950571  .00001554  00000-0  16270-3 0  9541
2 21397 082.5227 110.3744 0020054 163.6184 196.5687 14.88854097187787
Epoch (UTC): 19 May 2013 10:47:17
Eccentricity: 0.0020054
inclination: 82.5227°
perigee height: 587 km
apogee height: 615 km
right ascension of ascending node: 110.3744°
argument of perigee: 163.6184°
revolutions per day: 14.88854097
mean anomaly at epoch: 196.5687°
orbit number at epoch: 18778

The dashed part of the orbit path shows where the satellite is in the earth's shadow,  

Developed and maintained by Chris Peat, Heavens-Above GmbH. Please read the updated FAQ before sending e-mail. Imprint. DLR